TimeCDT,TemperatureF,Dew PointF,Humidity,Sea Level PressureIn,VisibilityMPH,Wind Direction,Wind SpeedMPH,Gust SpeedMPH,PrecipitationIn,Events,Conditions,WindDirDegrees,DateUTC
12:53 AM,57.9,54.0,87,29.98,10.0,ESE,3.5,-,N/A,,Clear,110,2012-10-21 05:53:00
1:53 AM,59.0,54.0,83,29.98,10.0,ESE,3.5,-,N/A,,Clear,120,2012-10-21 06:53:00
2:53 AM,57.9,54.0,87,29.98,10.0,East,4.6,-,N/A,,Clear,100,2012-10-21 07:53:00
3:53 AM,57.9,54.0,87,29.99,10.0,ESE,3.5,-,N/A,,Clear,120,2012-10-21 08:53:00
4:53 AM,57.9,54.0,87,30.00,10.0,ESE,4.6,-,N/A,,Clear,110,2012-10-21 09:53:00
5:53 AM,57.9,55.0,90,30.01,10.0,ESE,3.5,-,N/A,,Clear,120,2012-10-21 10:53:00
6:53 AM,57.0,53.1,87,30.03,10.0,ESE,4.6,-,N/A,,Clear,110,2012-10-21 11:53:00
7:53 AM,61.0,55.9,83,30.05,10.0,East,3.5,-,N/A,,Clear,90,2012-10-21 12:53:00
8:53 AM,69.1,60.1,73,30.07,10.0,ESE,4.6,-,N/A,,Clear,120,2012-10-21 13:53:00
9:53 AM,75.9,60.1,58,30.08,10.0,SE,8.1,-,N/A,,Clear,130,2012-10-21 14:53:00
10:53 AM,79.0,60.1,52,30.09,10.0,SE,9.2,-,N/A,,Clear,140,2012-10-21 15:53:00
11:53 AM,82.9,57.9,42,30.08,10.0,SE,8.1,-,N/A,,Clear,140,2012-10-21 16:53:00
12:53 PM,84.9,57.0,38,30.06,10.0,South,10.4,-,N/A,,Clear,180,2012-10-21 17:53:00
1:53 PM,84.9,57.9,40,30.04,10.0,South,11.5,-,N/A,,Clear,180,2012-10-21 18:53:00
2:53 PM,84.0,57.0,40,30.03,10.0,South,12.7,-,N/A,,Clear,190,2012-10-21 19:53:00
3:53 PM,84.9,52.0,32,30.03,10.0,South,12.7,-,N/A,,Clear,180,2012-10-21 20:53:00
4:53 PM,82.9,57.0,41,30.03,10.0,South,11.5,-,N/A,,Clear,180,2012-10-21 21:53:00
5:53 PM,79.0,62.1,56,30.03,10.0,South,6.9,-,N/A,,Clear,180,2012-10-21 22:53:00
6:53 PM,72.0,63.0,73,30.04,10.0,South,6.9,-,N/A,,Clear,170,2012-10-21 23:53:00
7:53 PM,71.1,63.0,75,30.05,10.0,SSE,8.1,-,N/A,,Clear,160,2012-10-22 00:53:00
8:53 PM,69.1,62.1,78,30.05,10.0,SSE,6.9,-,N/A,,Clear,150,2012-10-22 01:53:00
9:53 PM,66.9,61.0,81,30.06,10.0,SE,6.9,-,N/A,,Clear,140,2012-10-22 02:53:00
10:53 PM,64.9,61.0,87,30.07,10.0,SE,3.5,-,N/A,,Clear,140,2012-10-22 03:53:00
11:53 PM,63.0,60.1,90,30.06,10.0,SE,4.6,-,N/A,,Clear,130,2012-10-22 04:53:00